User: anonymous   Login
Location: Unspecified
(0.0000°N, 0.0000°E)
Time: 18:41:13
(UTC+00:00)
Language:

NOSS 2-3 (E) - Orbit

View from above orbital plane
View from above orbital plane
View from above satellite
View from above satellite

Ground track
Ground track

The orbit data is extracted from the following two-line orbital elements,

1 23936U 96029E   18344.23192737 0.00000100  00000-0  50247-4 0    09
2 23936  63.3712 102.3644 0652798  16.7772 343.2228 13.40905543    02
Epoch (UTC): 10 December 2018 05:33:58
Eccentricity: 0.0652798
inclination: 63.3712°
perigee height: 617 km
apogee height: 1594 km
right ascension of ascending node: 102.3644°
argument of perigee: 16.7772°
revolutions per day: 13.40905543
mean anomaly at epoch: 343.2228°
orbit number at epoch: 0

The dashed part of the orbit path shows where the satellite is in the earth's shadow,  

DLR